Location: Owatonna
(44.0840°N, 93.2260°W)
Time: 04:59:29
(UTC-05:00)

Tiangong - Pass Details

Date: 03 July 2022
Orbit: 381 x 385 km, 41.5° (Epoch: 16 August)

Event Time Altitude Azimuth Distance (km) Brightness Sun altitude
Rises 23:08:56 0° 266° (W) 2,245 2.1 -16.9°
Reaches altitude 10° 23:12:13 10° 230° (SW) 1,389 0.6 -17.2°
Enters shadow 23:12:15 10° 229° (SW) 1,383 0.6 -17.2°
